Location: Newark
(44.3681°N, 100.3364°W)
Time: 18:42:38
(UTC+00:00)

S-56A Canister/Altair - Pass Details

Date: 05 March 2020
Orbit: 634 x 2498 km, 38.9° (Epoch: 02 April)

Event Time Altitude Azimuth Distance (km) Brightness Sun altitude
Rises 20:54:50 0° 284° (WNW) 5,983 12.3 33.0°
Reaches altitude 10° 20:59:27 10° 274° (W) 5,096 12.3 32.5°
Maximum altitude 21:10:50 28° 224° (SW) 3,864 14.4 31.2°
Drops below altitude 10° 21:21:39 10° 174° (S) 4,798 12.2 29.9°
Sets 21:25:54 0° 163° (SSE) 5,581 12.3 29.3°
